User: anonymous   Login
Location: Newark
(25.0000°N, 73.5000°E)
Time: 13:25:26
(UTC+00:00)
Language:

Hubble Space Telescope - Orbit

View from above orbital plane
View from above orbital plane
View from above satellite
View from above satellite

Ground track
Ground track

The orbit data is extracted from the following two-line orbital elements,

1 20580U 90037B   21211.49989939  .00000634  00000-0  27374-4 0  9991
2 20580  28.4695 140.2425 0002804 163.1511   0.1167 15.09693121517770
Epoch (UTC): 30 July 2021 11:59:51
Eccentricity: 0.0002804
inclination: 28.4695°
perigee height: 535 km
apogee height: 539 km
right ascension of ascending node: 140.2425°
argument of perigee: 163.1511°
revolutions per day: 15.09693121
mean anomaly at epoch: 0.1167°
orbit number at epoch: 51777

The dashed part of the orbit path shows where the satellite is in the earth's shadow,  

DLR